IBB368 GCLP-GCHI

Flight info

Callsign IBB368
Flight time N/A
Altitude 12000
Route HIE
Aircraft AT75/M-SDE2E3FGHIRWXY/LB1

Departure

Time 2026-04-27 21:38
Airport Gran Canaria Airport (GCLP)

Arrival

Time N/A
Airport El Hierro Airport (GCHI)
Time Latitude Longitude Altitude Speed Heading
2026-04-27 21:28 27.93224 -15.38904 85 ft 0 kts 290°
2026-04-27 21:32 27.93225 -15.38904 85 ft 0 kts 290°
2026-04-27 21:33 27.93229 -15.38908 85 ft 1 kts 335°
2026-04-27 21:33 27.93233 -15.38908 85 ft 1 kts
2026-04-27 21:34 27.93239 -15.38902 85 ft 3 kts 63°
2026-04-27 21:34 27.93232 -15.38860 85 ft 9 kts 139°
2026-04-27 21:34 27.93168 -15.38863 85 ft 10 kts 196°
2026-04-27 21:34 27.93100 -15.38889 85 ft 11 kts 201°
2026-04-27 21:35 27.93024 -15.38924 85 ft 13 kts 202°
2026-04-27 21:35 27.92932 -15.38966 85 ft 17 kts 201°
2026-04-27 21:35 27.92802 -15.39026 85 ft 23 kts 201°
2026-04-27 21:35 27.92639 -15.39100 85 ft 27 kts 201°
2026-04-27 21:36 27.92453 -15.39183 85 ft 29 kts 201°
2026-04-27 21:36 27.92259 -15.39269 85 ft 31 kts 201°
2026-04-27 21:36 27.92088 -15.39331 85 ft 21 kts 167°
2026-04-27 21:36 27.91980 -15.39304 85 ft 11 kts 170°
2026-04-27 21:37 27.91926 -15.39292 85 ft 7 kts 150°
2026-04-27 21:37 27.91911 -15.39245 85 ft 8 kts 61°
2026-04-27 21:37 27.92147 -15.39122 85 ft 75 kts 23°
2026-04-27 21:37 27.92804 -15.38830 221 ft 113 kts 22°
2026-04-27 21:38 27.93540 -15.38467 685 ft 128 kts 23°
2026-04-27 21:38 27.94425 -15.37995 1055 ft 152 kts 24°
2026-04-27 21:38 27.95426 -15.37438 1515 ft 165 kts 24°
2026-04-27 21:38 27.96490 -15.36841 2111 ft 169 kts 24°
2026-04-27 21:39 27.97518 -15.36261 2752 ft 163 kts 24°
2026-04-27 21:39 27.98504 -15.35577 3134 ft 174 kts 39°
2026-04-27 21:39 27.98986 -15.34334 3562 ft 180 kts 78°
2026-04-27 21:39 27.98679 -15.32961 3955 ft 187 kts 117°
2026-04-27 21:40 27.97724 -15.31960 4433 ft 186 kts 143°
2026-04-27 21:40 27.96576 -15.31206 4791 ft 192 kts 152°
2026-04-27 21:40 27.95396 -15.30553 5226 ft 192 kts 154°
2026-04-27 21:40 27.94169 -15.29917 5638 ft 195 kts 158°
2026-04-27 21:41 27.92842 -15.29897 6025 ft 192 kts 195°
2026-04-27 21:41 27.91773 -15.30752 6381 ft 190 kts 233°
2026-04-27 21:41 27.91381 -15.32130 6739 ft 185 kts 270°
2026-04-27 21:41 27.91553 -15.33560 7151 ft 185 kts 280°
2026-04-27 21:42 27.91585 -15.35031 7546 ft 187 kts 273°
2026-04-27 21:42 27.91551 -15.36518 7942 ft 189 kts 271°
2026-04-27 21:42 27.91507 -15.37985 8343 ft 190 kts 271°
2026-04-27 21:42 27.91458 -15.39475 8736 ft 191 kts 271°
2026-04-27 21:43 27.91408 -15.40973 9125 ft 192 kts 271°
2026-04-27 21:43 27.91355 -15.42498 9502 ft 193 kts 271°
2026-04-27 21:43 27.91301 -15.44021 9878 ft 194 kts 271°
2026-04-27 21:43 27.91245 -15.45549 10235 ft 196 kts 271°
2026-04-27 21:44 27.91187 -15.47089 10601 ft 197 kts 271°
2026-04-27 21:44 27.91131 -15.48634 10965 ft 197 kts 271°
2026-04-27 21:44 27.91080 -15.50179 11325 ft 197 kts 271°
2026-04-27 21:44 27.91031 -15.51714 11670 ft 198 kts 271°
2026-04-27 21:45 27.90980 -15.53289 11921 ft 204 kts 271°
2026-04-27 21:45 27.90931 -15.54948 12040 ft 215 kts 271°
2026-04-27 21:45 27.90883 -15.56672 12080 ft 227 kts 271°
2026-04-27 21:45 27.90836 -15.58506 12088 ft 238 kts 271°
2026-04-27 21:46 27.90781 -15.60402 12089 ft 246 kts 271°
2026-04-27 21:46 27.90712 -15.62374 12088 ft 252 kts 270°
2026-04-27 21:46 27.90639 -15.64371 12087 ft 256 kts 270°
2026-04-27 21:46 27.90564 -15.66386 12087 ft 260 kts 270°
2026-04-27 21:47 27.90489 -15.68440 12086 ft 262 kts 270°
2026-04-27 21:47 27.90414 -15.70504 12086 ft 264 kts 270°
2026-04-27 21:47 27.90340 -15.72587 12092 ft 265 kts 270°
2026-04-27 21:47 27.90267 -15.74659 12094 ft 265 kts 270°
2026-04-27 21:48 27.90194 -15.76745 12095 ft 266 kts 270°
2026-04-27 21:48 27.90121 -15.78845 12096 ft 266 kts 270°
2026-04-27 21:48 27.90048 -15.80939 12096 ft 266 kts 270°
2026-04-27 21:48 27.89975 -15.83019 12097 ft 267 kts 270°
2026-04-27 21:49 27.89902 -15.85138 12096 ft 267 kts 270°
2026-04-27 21:49 27.89829 -15.87236 12096 ft 268 kts 270°
2026-04-27 21:49 27.89756 -15.89334 12096 ft 268 kts 270°
2026-04-27 21:49 27.89681 -15.91422 12096 ft 268 kts 270°
2026-04-27 21:50 27.89604 -15.93529 12096 ft 268 kts 270°
2026-04-27 21:50 27.89530 -15.95644 12102 ft 268 kts 270°
2026-04-27 21:50 27.89458 -15.97743 12105 ft 268 kts 270°
2026-04-27 21:50 27.89386 -15.99855 12107 ft 268 kts 270°
2026-04-27 21:51 27.89315 -16.01918 12108 ft 268 kts 270°
2026-04-27 21:51 27.89240 -16.04067 12108 ft 268 kts 270°
2026-04-27 21:51 27.89166 -16.06169 12108 ft 268 kts 270°
2026-04-27 21:51 27.89092 -16.08275 12108 ft 268 kts 270°
2026-04-27 21:52 27.89018 -16.10348 12108 ft 268 kts 270°
2026-04-27 21:52 27.88943 -16.12454 12108 ft 268 kts 270°
2026-04-27 21:52 27.88868 -16.14553 12108 ft 268 kts 270°
2026-04-27 21:52 27.88791 -16.16694 12108 ft 268 kts 270°
2026-04-27 21:53 27.88716 -16.18774 12110 ft 268 kts 270°
2026-04-27 21:53 27.88638 -16.20869 12112 ft 268 kts 270°
2026-04-27 21:53 27.88561 -16.22988 12112 ft 268 kts 270°
2026-04-27 21:53 27.88486 -16.25093 12113 ft 268 kts 270°
2026-04-27 21:54 27.88413 -16.27166 12112 ft 268 kts 269°
2026-04-27 21:54 27.88338 -16.29278 12113 ft 269 kts 269°
2026-04-27 21:54 27.88264 -16.31335 12113 ft 269 kts 269°
2026-04-27 21:54 27.88186 -16.33485 12113 ft 269 kts 269°
2026-04-27 21:55 27.88109 -16.35608 12113 ft 269 kts 269°
2026-04-27 21:55 27.88041 -16.37461 12112 ft 269 kts 269°
2026-04-27 21:55 27.87959 -16.39705 12112 ft 270 kts 269°
2026-04-27 21:55 27.87881 -16.41828 12112 ft 270 kts 269°
2026-04-27 21:56 27.87802 -16.43944 12112 ft 270 kts 269°
2026-04-27 21:56 27.87645 -16.48173 12112 ft 270 kts 269°
2026-04-27 21:56 27.87565 -16.50331 12112 ft 270 kts 269°
2026-04-27 21:57 27.87488 -16.52385 12112 ft 270 kts 269°
2026-04-27 21:57 27.87407 -16.54535 12112 ft 270 kts 269°
2026-04-27 21:57 27.87327 -16.56658 12112 ft 270 kts 269°
2026-04-27 21:57 27.87247 -16.58781 12112 ft 270 kts 269°
2026-04-27 21:58 27.87167 -16.60899 12112 ft 270 kts 269°
2026-04-27 21:58 27.87086 -16.63011 12112 ft 270 kts 269°
2026-04-27 21:58 27.87005 -16.65141 12113 ft 270 kts 269°
2026-04-27 21:58 27.86922 -16.67309 12113 ft 270 kts 269°
2026-04-27 21:59 27.86840 -16.69435 12113 ft 270 kts 269°
2026-04-27 21:59 27.86757 -16.71544 12114 ft 269 kts 269°
2026-04-27 21:59 27.86672 -16.73663 12113 ft 268 kts 269°
2026-04-27 21:59 27.86587 -16.75757 12111 ft 267 kts 269°
2026-04-27 22:00 27.86501 -16.77852 12113 ft 267 kts 270°
2026-04-27 22:00 27.86441 -16.79260 12114 ft 267 kts 270°
2026-04-27 22:00 27.86322 -16.82039 12114 ft 268 kts 270°
2026-04-27 22:00 27.86231 -16.84138 12114 ft 268 kts 270°
2026-04-27 22:01 27.86139 -16.86238 12114 ft 268 kts 270°
2026-04-27 22:01 27.86077 -16.87670 12114 ft 268 kts 270°
2026-04-27 22:01 27.85986 -16.89744 12115 ft 268 kts 270°
2026-04-27 22:01 27.85893 -16.91854 12115 ft 268 kts 270°
2026-04-27 22:02 27.85801 -16.93952 12115 ft 268 kts 270°
2026-04-27 22:02 27.85708 -16.96048 12115 ft 268 kts 270°
2026-04-27 22:02 27.85615 -16.98157 12115 ft 268 kts 270°
2026-04-27 22:02 27.85523 -17.00235 12115 ft 268 kts 270°
2026-04-27 22:03 27.85429 -17.02334 12115 ft 268 kts 270°
2026-04-27 22:03 27.85335 -17.04441 12115 ft 268 kts 270°
2026-04-27 22:03 27.85240 -17.06571 12115 ft 268 kts 270°
2026-04-27 22:03 27.85148 -17.08649 12071 ft 270 kts 270°
2026-04-27 22:04 27.85055 -17.10774 11943 ft 270 kts 270°
2026-04-27 22:04 27.84962 -17.12888 11816 ft 269 kts 269°
2026-04-27 22:04 27.84873 -17.14977 11692 ft 268 kts 269°
2026-04-27 22:04 27.84781 -17.17077 11567 ft 267 kts 270°
2026-04-27 22:05 27.84689 -17.19172 11442 ft 267 kts 270°
2026-04-27 22:05 27.84625 -17.20590 11357 ft 267 kts 270°